Waarnemingen

Advertentie
Mijn weer
Dunkeswell Aerodrome, Groot Brittannië (3840): temperatuur & dauwpunt: 11.12.2017 08:00:00 - 17.12.2017 08:00:00 (GMT)Dunkeswell Aerodrome, Groot Brittannië (3840): temperatuur -20cm & temperatuur -100cm: 11.12.2017 08:00:00 - 17.12.2017 08:00:00 (GMT)Dunkeswell Aerodrome, Groot Brittannië (3840): windsnelheid & windstoten: 11.12.2017 08:00:00 - 17.12.2017 08:00:00 (GMT)Dunkeswell Aerodrome, Groot Brittannië (3840): windrichting: 11.12.2017 08:00:00 - 17.12.2017 08:00:00 (GMT)Dunkeswell Aerodrome, Groot Brittannië (3840): luchtdruk: 11.12.2017 08:00:00 - 17.12.2017 08:00:00 (GMT)Dunkeswell Aerodrome, Groot Brittannië (3840): zicht: 11.12.2017 08:00:00 - 17.12.2017 08:00:00 (GMT)Dunkeswell Aerodrome, Groot Brittannië (3840): neerslag: 11.12.2017 08:00:00 - 17.12.2017 08:00:00 (GMT)
Datum & Tijd tt [°C] td [°C] tt -20cm [°C] tt -100cm [°C] ff [km/u] ff [kn] fx [km/u] fx [kn] dd ppp [hPa] vv [km] rr [mm]
17.12.2017 08:00:00 - - - - - - - - - - - -
17.12.2017 07:00:00 5,4 5,3 - - 11 6 - - W 1025,3 15 0,0
17.12.2017 06:00:00 4,9 4,7 - - 8 4 - - WZW 1025,2 14 0,0
17.12.2017 05:00:00 5,0 4,8 - - 8 4 - - W 1025,4 13 0,0
17.12.2017 04:00:00 4,2 3,8 - - 8 4 - - W 1025,4 14 0,0
17.12.2017 03:00:00 4,6 3,8 - - 8 4 - - W 1025,6 23 0,0
17.12.2017 02:00:00 5,1 4,2 - - 8 4 - - WNW 1025,4 30 0,0
17.12.2017 01:00:00 4,9 3,9 - - 8 4 - - W 1025,3 26 0,0
17.12.2017 00:00:00 5,1 3,6 - - 4 2 - - NW 1025,2 28 -
16.12.2017 23:00:00 5,1 3,6 - - 8 4 - - WNW 1024,8 30 0,0
16.12.2017 22:00:00 5,0 3,5 - - 8 4 - - NNW 1024,5 30 0,0
16.12.2017 21:00:00 4,9 3,5 - - 9 5 - - NW 1024,1 29 0,0
16.12.2017 20:00:00 5,0 3,7 - - 11 6 - - NW 1023,5 30 0,0
16.12.2017 19:00:00 4,6 3,5 - - 9 5 - - NW 1023,0 35 0,0
16.12.2017 18:00:00 4,1 3,0 - - 5 3 - - NW 1023,1 29 0,0
16.12.2017 17:00:00 4,4 3,8 - - 11 6 - - WNW 1022,3 30 0,0
16.12.2017 16:00:00 4,6 3,4 - - 13 7 - - W 1021,9 17 0,2
16.12.2017 15:00:00 5,2 1,6 - - 16 9 - - W 1021,4 35 0,0
16.12.2017 14:00:00 6,0 1,8 - - 16 9 - - WNW 1021,2 23 0,0
16.12.2017 13:00:00 6,1 1,7 - - 16 9 - - WNW 1021,5 30 0,0
16.12.2017 12:00:00 5,4 2,7 - - 16 9 - - WNW 1021,7 35 0,0
16.12.2017 11:00:00 4,7 2,0 - - 9 5 - - W 1021,5 22 0,0
16.12.2017 10:00:00 3,7 1,6 - - 9 5 - - W 1021,4 24 0,0
16.12.2017 09:00:00 1,9 0,7 5,7 8,0 8 4 - - WNW 1021,1 25 0,0
16.12.2017 08:00:00 1,8 0,4 - - 9 5 - - NW 1020,1 26 0,0
16.12.2017 07:00:00 1,8 0,4 - - 9 5 - - NW 1019,3 30 0,0
16.12.2017 06:00:00 2,5 1,0 - - 13 7 - - NW 1018,5 35 0,0
16.12.2017 05:00:00 2,8 1,4 - - 13 7 - - NW 1017,7 35 0,0
16.12.2017 04:00:00 3,0 1,5 - - 15 8 - - WNW 1017,2 40 0,0
16.12.2017 03:00:00 2,1 0,4 - - 13 7 - - NW 1016,8 30 0,0
16.12.2017 02:00:00 1,8 -0,3 - - 13 7 - - NNW 1016,3 30 0,0
16.12.2017 01:00:00 1,9 -0,3 - - 15 8 - - NW 1015,8 29 0,0
16.12.2017 00:00:00 1,9 0,2 - - 15 8 - - NW 1015,1 23 0,0
15.12.2017 23:00:00 2,2 -0,8 - - 13 7 - - NNW 1014,2 30 0,0
15.12.2017 22:00:00 2,2 -0,1 - - 13 7 - - N 1013,6 40 0,0
15.12.2017 21:00:00 3,4 0,2 - - 21 11 - - N 1012,6 45 0,0
15.12.2017 20:00:00 3,7 0,3 - - 18 10 - - N 1011,9 45 0,0
15.12.2017 19:00:00 4,5 1,0 - - 16 9 - - N 1010,8 50 0,0
15.12.2017 18:00:00 4,3 0,9 - - 16 9 - - N 1009,4 50 0,0
15.12.2017 17:00:00 3,7 0,6 - - 16 9 - - N 1008,4 50 0,0
15.12.2017 16:00:00 4,3 0,6 - - 16 9 - - NNW 1007,1 50 0,0
15.12.2017 15:00:00 5,4 1,4 - - 22 12 - - NNW 1005,5 40 0,0
15.12.2017 14:00:00 5,8 1,3 - - 21 11 - - NNW 1004,5 40 0,0
15.12.2017 13:00:00 5,5 0,1 - - 21 11 - - NW 1003,8 26 0,0
15.12.2017 12:00:00 5,0 0,5 - - 18 10 - - NW 1003,4 35 0,0
15.12.2017 11:00:00 4,6 0,3 - - 18 10 - - NNW 1002,6 45 0,0
15.12.2017 10:00:00 3,5 0,2 - - 16 9 - - NW 1001,8 50 0,0
15.12.2017 09:00:00 2,7 0,0 5,9 8,2 18 10 - - NNW 1000,3 50 0,0
15.12.2017 08:00:00 3,2 0,6 - - 21 11 52 28 N 998,4 50 0,0
15.12.2017 07:00:00 4,1 2,3 - - 22 12 52 28 NNW 996,2 40 0,0
15.12.2017 06:00:00 4,3 3,1 - - 28 15 - - WNW 994,6 29 1,2
15.12.2017 05:00:00 5,0 2,8 - - 26 14 52 28 WNW 994,0 17 0,2
15.12.2017 04:00:00 5,0 3,1 - - 18 10 - - WNW 993,9 11 0,0
15.12.2017 03:00:00 4,8 3,4 - - 16 9 - - W 993,8 16 0,0
15.12.2017 02:00:00 4,0 2,5 - - 16 9 - - W 993,8 16 0,0
15.12.2017 01:00:00 3,6 2,3 - - 16 9 - - W 994,0 26 0,0
15.12.2017 00:00:00 3,4 1,6 - - 16 9 - - W 994,1 21 0,0
14.12.2017 23:00:00 3,5 1,2 - - 18 10 - - WNW 993,8 28 0,0
14.12.2017 22:00:00 3,6 2,3 - - 15 8 - - W 993,1 26 0,0
14.12.2017 21:00:00 4,0 2,9 - - 18 10 55 30 NW 992,3 45 0,4
14.12.2017 20:00:00 3,7 3,2 - - 15 8 - - WNW 990,7 19 0,8
14.12.2017 19:00:00 3,3 3,1 - - 15 8 - - WZW 989,8 4,4 1,0
14.12.2017 18:00:00 3,2 2,6 - - 13 7 52 28 ZW 989,5 11 1,2
14.12.2017 17:00:00 3,2 1,6 - - 16 9 - - ZW 990,0 12 0,0
14.12.2017 16:00:00 3,7 1,5 - - 15 8 - - WZW 990,4 15 0,0
14.12.2017 15:00:00 4,3 2,4 - - 15 8 - - WZW 991,0 18 0,0
14.12.2017 14:00:00 4,7 2,9 - - 13 7 - - WZW 991,5 18 0,4
14.12.2017 13:00:00 3,3 1,5 - - 22 12 - - W 992,6 14 0,2
14.12.2017 12:00:00 4,1 1,7 - - 24 13 - - W 993,2 28 0,0
14.12.2017 11:00:00 4,0 1,6 - - 18 10 - - W 994,1 30 0,0
14.12.2017 10:00:00 3,0 1,8 - - 16 9 - - W 995,0 14 0,2
14.12.2017 09:00:00 3,6 1,4 6,0 8,4 18 10 - - W 995,1 12 0,0
14.12.2017 08:00:00 3,1 1,1 - - 18 10 - - W 995,3 15 0,2
14.12.2017 07:00:00 3,7 1,1 - - 24 13 - - W 995,7 16 0,0
14.12.2017 06:00:00 3,2 1,9 - - 21 11 - - WZW 996,0 13 0,8
14.12.2017 05:00:00 3,3 1,8 - - 24 13 48 26 W 996,5 20 0,2
14.12.2017 04:00:00 3,4 1,4 - - 29 16 46 25 WZW 996,9 7 0,2
14.12.2017 03:00:00 3,4 1,6 - - 15 8 57 31 W 997,5 14 0,2
14.12.2017 02:00:00 3,1 1,6 - - 16 9 46 25 W 997,8 16 0,2
14.12.2017 01:00:00 3,2 1,3 - - 21 11 - - W 998,0 16 0,0
14.12.2017 00:00:00 3,6 1,5 - - 21 11 46 25 W 998,1 14 0,2
13.12.2017 23:00:00 3,5 0,9 - - 22 12 48 26 W 997,6 10 0,0
13.12.2017 22:00:00 3,6 0,3 - - 24 13 72 39 WNW 996,7 19 0,2
13.12.2017 21:00:00 3,0 -0,4 - - 35 19 63 34 WNW 995,4 45 0,0
13.12.2017 20:00:00 3,3 2,5 - - 21 11 83 45 W 994,3 18 1,0
13.12.2017 19:00:00 3,9 3,1 - - 26 14 55 30 WZW 993,6 29 1,6
13.12.2017 18:00:00 3,5 3,0 - - 16 9 - - WZW 995,2 8 0,0
13.12.2017 17:00:00 3,6 2,3 - - 15 8 - - WZW 995,8 10 0,0
13.12.2017 16:00:00 4,5 3,1 - - 11 6 48 26 W 996,1 14 0,2
13.12.2017 15:00:00 4,8 3,2 - - 37 20 57 31 WNW 996,4 3,0 1,0
13.12.2017 14:00:00 6,7 5,6 - - 31 17 59 32 W 995,4 6 0,6
13.12.2017 13:00:00 8,1 7,7 - - 29 16 55 30 W 995,6 21 0,4
13.12.2017 12:00:00 7,2 7,2 - - 26 14 - - WZW 997,1 10 0,6
13.12.2017 11:00:00 6,6 6,6 - - 15 8 - - ZW 998,9 4,2 1,0
13.12.2017 10:00:00 6,3 6,0 - - 18 10 - - ZW 1000,1 7 0,2
13.12.2017 09:00:00 5,8 5,8 5,9 8,7 15 8 - - ZW 1001,2 10 0,0
13.12.2017 08:00:00 5,8 5,8 - - 18 10 - - WZW 1002,3 5 0,4
13.12.2017 07:00:00 5,5 5,4 - - 15 8 - - ZW 1002,9 3,5 0,4
13.12.2017 06:00:00 5,5 5,2 - - 13 7 - - WZW 1003,4 8 0,0
13.12.2017 05:00:00 5,8 5,3 - - 16 9 - - W 1003,7 10 0,0
13.12.2017 04:00:00 5,6 5,0 - - 15 8 - - W 1003,9 9 0,0
13.12.2017 03:00:00 5,9 5,0 - - 13 7 - - W 1003,9 10 0,0
13.12.2017 02:00:00 6,1 5,3 - - 15 8 - - WNW 1003,8 9 0,0
13.12.2017 01:00:00 6,6 6,3 - - 13 7 - - WNW 1004,0 10 0,0
13.12.2017 00:00:00 7,5 7,5 - - 21 11 - - W 1004,0 16 0,8
12.12.2017 23:00:00 7,5 7,5 - - 28 15 - - ZZW 1003,8 8 0,2
12.12.2017 22:00:00 6,7 6,7 - - 26 14 - - ZW 1004,5 6 0,4
12.12.2017 21:00:00 5,7 5,7 - - 24 13 - - Z 1006,1 5 1,0
12.12.2017 20:00:00 5,0 4,7 - - 24 13 - - Z 1007,3 5 0,8
12.12.2017 19:00:00 4,9 3,8 - - 18 10 - - ZZW 1008,1 7 0,2
12.12.2017 18:00:00 4,3 2,9 - - 15 8 - - ZZW 1008,6 23 0,0
12.12.2017 17:00:00 4,0 2,5 - - 11 6 - - Z 1009,2 27 0,0
12.12.2017 16:00:00 3,7 2,0 - - 13 7 - - Z 1008,9 19 0,0
12.12.2017 15:00:00 4,3 2,1 - - 13 7 - - ZW 1009,5 40 0,0
12.12.2017 14:00:00 4,0 2,3 - - 13 7 - - ZW 1009,9 30 0,0
12.12.2017 13:00:00 4,1 2,6 - - 11 6 - - ZW 1009,9 23 0,0
12.12.2017 12:00:00 3,4 2,4 - - 9 5 - - ZW 1010,0 30 0,0
12.12.2017 11:00:00 2,3 1,8 - - 13 7 - - ZW 1010,3 29 0,0
12.12.2017 10:00:00 2,6 2,0 - - 8 4 - - WZW 1010,1 45 0,0
12.12.2017 09:00:00 0,6 0,5 6,0 8,7 5 3 - - WZW 1009,6 40 0,0
12.12.2017 08:00:00 -0,3 -0,3 - - 9 5 - - ZW 1009,3 30 0,0
12.12.2017 07:00:00 -0,7 -0,9 - - 4 2 - - W 1008,4 50 0,0
12.12.2017 06:00:00 -0,3 -0,5 - - 2 1 - - NW 1007,6 40 0,0
12.12.2017 05:00:00 -0,3 -0,6 - - 2 1 - - NW 1006,7 45 0,0
12.12.2017 04:00:00 -0,3 -1,0 - - 4 2 - - NW 1006,1 50 0,0
12.12.2017 03:00:00 0,0 -0,9 - - 5 3 - - NNW 1005,2 50 0,0
12.12.2017 02:00:00 0,3 -0,4 - - 5 3 - - NNW 1004,1 50 0,0
12.12.2017 01:00:00 0,2 -0,4 - - 5 3 - - NNW 1003,0 30 0,0
12.12.2017 00:00:00 0,0 -0,5 - - 8 4 - - NNW 1002,1 30 0,0
11.12.2017 23:00:00 0,5 -0,3 - - 8 4 - - NNW 1001,2 30 0,0
11.12.2017 22:00:00 1,0 -0,4 - - 9 5 - - NNW 1000,4 50 0,0
11.12.2017 21:00:00 0,9 -1,0 - - 13 7 - - NW 999,0 50 0,0
11.12.2017 20:00:00 0,6 -2,2 - - 11 6 - - NW 997,7 50 0,0
11.12.2017 19:00:00 0,3 -3,7 - - 9 5 - - NW 996,4 50 0,0
11.12.2017 18:00:00 -0,4 -3,4 - - 8 4 - - NW 995,2 45 0,0
11.12.2017 17:00:00 0,2 -3,1 - - 11 6 - - NW 994,0 50 0,0
11.12.2017 16:00:00 1,3 -2,9 - - 16 9 - - NNW 992,5 50 0,0
11.12.2017 15:00:00 2,1 -2,5 - - 24 13 - - N 991,4 50 0,0
11.12.2017 14:00:00 2,4 -1,5 - - 26 14 - - N 989,9 30 0,0
11.12.2017 13:00:00 1,5 -0,6 - - 26 14 - - N 989,0 50 0,0
11.12.2017 12:00:00 1,0 -0,6 - - 31 17 52 28 N 987,6 45 0,2
11.12.2017 11:00:00 0,8 0,1 - - 28 15 - - N 986,5 22 0,6
11.12.2017 10:00:00 0,5 0,4 - - 31 17 55 30 N 984,8 14 0,0
11.12.2017 09:00:00 0,3 0,3 6,7 8,7 37 20 54 29 NNO 982,9 10 0,0
11.12.2017 08:00:00 0,0 0,0 - - 35 19 48 26 NNO 981,2 3,4 0,0

tt = temperatuur
td = dauwpunt
tt -20cm = temperatuur -20cm
tt -100cm = temperatuur -100cm
ff = windsnelheid
fx = windstoten
dd = windrichting
ppp = luchtdruk
vv = zicht
rr = neerslag

Weerstations in de omgeving